Wind_Speed
62 58 54 52 48 45 45 43 42 40 39 37 34 33 27 24 26 31 36 38 38 37 37 37 39 40 39 39 38 39 40 41 39 37 34 32 33 32 30 32 34 36 37 30 18 20 22 24 26
66 66 60 56 53 50 50 50 47 45 41 37 39 37 33 28 30 28 29 30 30 31 29 28 30 35 38 40 41 42 42 41 40 39 37 34 33 32 34 34 36 38 33 20 19 22 24 26 27
73 71 67 61 59 53 53 58 54 49 43 45 44 41 35 36 32 32 31 31 30 30 29 28 25 25 27 29 30 35 46 42 41 40 40 39 37 37 35 37 37 27 21 21 23 24 26 27 30
77 76 72 66 61 58 60 60 58 51 46 47 45 43 39 40 34 38 35 35 35 33 32 32 30 30 27 26 26 23 28 40 40 39 38 38 37 38 41 32 27 24 24 24 26 27 28 30 32
84 83 78 72 67 66 65 65 64 58 53 53 51 48 43 43 41 41 39 38 39 38 38 36 34 32 31 30 26 23 21 24 29 33 36 37 36 32 29 30 31 28 28 28 30 31 32 33 35
90 88 83 76 72 72 71 71 69 65 61 58 55 56 46 47 47 44 43 43 41 43 42 41 39 37 36 35 33 29 27 27 28 28 29 29 29 29 31 32 34 34 34 33 34 35 35 37 38
94 92 84 82 79 78 78 76 74 69 65 66 63 62 51 50 50 50 50 49 47 48 49 48 46 44 42 42 40 40 38 36 34 34 35 35 36 38 39 40 40 40 40 40 40 40 40 41 41
99 100 92 88 84 82 83 81 81 78 72 71 70 66 61 50 57 57 57 55 54 54 54 53 52 51 50 48 48 48 47 45 42 41 40 41 43 44 45 46 46 45 45 44 43 43 44 46 48
108 104 96 92 91 88 88 84 84 82 78 75 76 71 67 61 61 64 60 59 60 59 58 56 56 54 55 56 54 53 54 53 52 51 50 49 49 49 50 51 51 50 51 49 50 49 49 50 52
109 106 97 99 96 96 93 92 87 85 82 81 82 76 74 73 71 66 68 67 64 64 63 63 63 61 62 62 61 61 61 60 60 59 59 59 59 58 57 57 58 59 58 56 56 57 57 54 53
110 106 106 104 104 102 104 99 89 89 87 85 83 83 78 78 72 71 68 70 69 67 66 68 69 71 68 68 68 67 69 67 66 65 65 65 64 65 64 65 64 64 62 61 64 65 64 64 62
111 111 112 109 109 109 104 103 94 90 84 88 89 86 82 78 78 79 78 75 79 73 73 71 75 75 74 72 72 72 71 70 70 71 72 71 72 73 72 72 69 69 69 69 70 69 68 69 68
107 111 114 115 114 112 105 101 98 93 94 88 87 86 84 83 82 82 82 83 84 79 78 77 79 80 80 79 79 77 77 78 77 76 77 76 75 75 76 77 76 76 74 74 75 76 73 74 74
104 109 113 113 112 111 107 108 108 101 96 94 92 91 85 84 80 81 84 84 85 89 84 86 85 88 88 83 81 84 84 83 82 82 83 83 84 84 85 83 84 83 80 79 80 83 80 79 79
99 102 106 115 114 110 110 110 106 107 104 97 88 89 90 91 87 85 80 82 83 84 85 86 88 89 90 91 91 92 89 87 87 88 85 86 89 88 90 89 87 87 88 89 84 83 84 84 84
93 96 99 103 110 113 113 108 110 109 109 105 99 97 92 88 87 86 84 86 87 91 88 88 86 81 86 88 87 83 87 91 91 90 90 92 93 95 96 90 88 91 91 89 89 89 87 89 90
87 88 91 97 99 106 112 111 111 113 112 109 106 106 103 94 88 92 93 95 96 95 95 93 96 94 94 98 97 94 89 89 91 91 94 95 97 99 99 97 97 95 93 92 91 92 93 94 95
80 82 88 92 95 95 94 101 107 110 111 109 108 113 114 107 102 98 96 94 96 94 95 101 100 100 98 101 102 102 105 106 106 104 102 102 101 106 108 104 106 105 108 108 106 107 107 103 103
78 78 76 81 87 87 90 93 96 100 99 103 107 110 115 117 116 114 105 109 107 104 101 103 103 107 109 107 107 107 106 106 107 110 110 108 109 112 118 113 117 112 112 112 112 109 106 110 110
74 71 75 80 83 82 85 88 90 92 95 95 98 104 107 117 119 119 121 121 120 120 118 118 117 112 111 112 113 114 113 115 115 115 112 111 109 111 117 118 118 114 109 108 111 109 109 108 107
70 69 70 71 74 76 78 82 88 90 92 95 97 100 102 104 107 110 113 116 118 122 124 120 116 109 109 113 115 113 111 106 109 114 111 111 116 116 115 116 113 110 105 103 104 104 99 102 104
63 66 67 66 65 66 69 73 78 84 86 88 92 94 95 100 102 103 103 105 106 105 108 108 109 107 108 111 112 112 112 113 111 111 114 111 112 113 114 113 109 106 106 103 103 104 100 101 100
56 61 62 62 63 65 63 66 68 73 78 82 86 91 93 93 93 93 92 94 92 93 95 104 105 102 100 104 106 106 107 106 106 108 109 109 106 106 105 103 103 103 106 105 104 103 104 100 100
50 53 57 59 63 60 63 65 64 70 73 75 77 79 81 88 91 95 92 91 92 91 90 93 98 97 97 99 100 100 101 103 105 105 106 107 110 103 98 99 100 93 90 80 86 78 86 85 78
33 39 46 55 60 59 65 66 67 72 74 75 73 74 76 80 81 83 85 84 87 89 90 90 90 93 97 99 100 101 103 104 104 104 104 103 103 99 92 91 83 72 94 75 58 63 74 85 96
35 35 36 38 42 48 51 57 63 69 73 71 75 77 78 81 80 81 83 85 86 86 86 87 88 89 90 93 94 94 93 92 92 92 91 89 88 83 79 72 61 55 63 68 72 87 103 108 108
44 42 46 46 45 43 45 45 47 53 56 58 60 65 68 66 69 72 73 74 71 70 70 72 74 76 74 73 74 77 80 81 82 84 86 88 87 81 76 74 61 60 73 65 66 67 100 114 110
49 53 54 53 52 50 48 50 54 60 53 56 57 60 57 59 61 62 62 62 64 66 65 65 68 71 71 73 76 77 79 83 88 90 92 93 92 88 84 84 65 58 54 46 48 45 53 106 101
55 54 57 60 59 59 58 58 60 60 60 62 63 64 63 63 65 64 63 69 70 70 71 71 72 75 77 77 79 82 81 87 89 91 94 95 96 95 90 90 78 47 56 52 54 73 54 83 114
63 64 65 63 58 59 63 63 69 67 71 69 71 71 69 66 65 64 67 74 77 76 75 76 75 78 80 82 83 88 90 92 96 95 96 98 97 95 90 88 86 67 57 59 67 68 86 104 121
Wind_Direction
235 236 237 239 240 240 238 233 235 237 238 238 236 238 240 241 241 244 236 236 240 242 246 250 251 250 251 253 257 260 259 260 267 273 276 278 282 287 292 297 301 305 309 307 299 306 309 315 321
230 235 236 235 238 240 241 238 235 233 237 238 238 242 246 236 239 240 243 242 240 240 243 250 256 256 258 259 261 260 261 263 267 272 276 278 281 283 290 294 299 302 303 296 304 304 308 314 321
230 235 236 234 235 236 234 241 247 245 238 236 241 245 243 234 244 240 241 245 245 246 250 251 253 253 255 261 271 272 260 263 266 272 277 280 283 284 288 293 294 292 288 291 297 303 305 312 317
230 234 237 238 234 226 233 240 243 242 238 234 239 245 244 245 244 246 247 246 247 247 248 254 253 251 256 261 271 284 270 262 267 271 275 278 279 283 285 285 286 282 282 288 290 292 301 308 312
228 233 235 237 230 228 232 238 242 243 238 235 238 240 242 248 244 246 247 249 250 248 250 252 251 255 257 261 261 265 271 270 271 273 274 275 277 277 278 281 283 283 284 288 291 296 300 305 308
229 229 232 234 227 229 232 237 241 240 243 240 239 240 238 243 249 249 249 250 250 252 250 251 252 253 255 261 261 259 261 263 265 269 271 271 273 274 276 279 282 285 288 291 292 295 298 301 303
229 230 228 231 229 227 232 235 239 237 238 243 244 246 243 238 244 249 251 249 249 252 256 258 256 255 256 259 261 262 262 263 263 264 264 266 269 273 277 281 284 287 288 289 290 292 295 297 299
228 229 227 228 229 229 231 234 238 239 231 241 244 245 247 237 243 245 247 252 255 256 257 260 262 265 267 264 263 265 267 268 267 265 265 267 271 274 279 281 284 287 289 290 290 293 297 298 298
227 227 228 229 229 229 232 233 240 241 241 240 244 246 247 244 241 250 249 251 253 257 258 261 263 265 268 269 271 271 271 273 272 270 272 271 272 274 277 280 283 285 287 285 288 292 293 294 293
227 226 227 229 231 231 232 233 238 242 243 242 245 246 243 245 248 252 255 254 254 254 256 260 261 264 266 269 271 272 274 274 275 277 278 280 281 281 281 284 286 288 288 287 288 290 293 293 294
226 226 228 229 230 231 232 235 234 239 243 246 244 249 246 248 253 255 253 257 258 259 260 261 262 266 267 269 270 271 273 275 276 277 278 280 280 282 283 284 285 288 287 287 287 291 289 291 293
226 226 226 228 230 232 234 236 234 239 241 245 248 250 252 250 251 253 254 254 258 262 263 264 266 268 270 270 272 274 274 276 276 278 279 281 281 284 283 284 285 286 286 288 290 291 289 291 290
224 225 227 230 230 231 233 237 238 238 240 243 247 249 251 251 249 248 252 256 258 258 259 264 265 266 267 269 270 272 275 278 279 280 280 280 282 281 282 284 285 286 285 286 287 289 288 290 291
222 225 226 229 231 232 233 235 236 238 239 242 247 247 249 251 254 254 253 253 255 258 260 259 264 264 265 269 269 272 274 274 276 279 279 280 281 282 283 284 285 285 283 284 287 289 289 290 291
221 224 227 228 231 233 235 236 237 239 239 241 242 251 253 251 254 256 257 255 258 260 261 259 259 263 267 268 270 273 274 275 276 276 278 278 279 280 281 283 283 282 282 287 288 286 287 286 287
221 223 226 229 230 232 235 236 239 240 241 242 241 244 250 251 254 255 255 254 257 259 260 262 263 263 267 270 273 273 274 274 275 274 273 274 275 275 276 279 281 282 283 283 283 283 283 283 284
224 225 227 229 230 232 234 236 239 240 242 243 243 245 245 245 251 254 256 260 259 259 262 262 260 257 259 263 264 265 266 265 266 267 269 271 272 272 271 272 274 275 275 276 278 280 280 280 282
224 227 229 230 232 233 234 236 240 243 243 243 244 247 249 246 246 246 248 251 254 257 258 261 263 264 263 264 265 263 265 265 268 271 273 274 274 276 276 278 277 277 278 283 284 285 286 285 285
227 229 233 235 237 236 236 238 240 243 244 245 245 247 249 251 252 251 249 253 252 250 253 256 256 258 262 262 264 267 268 269 271 274 279 279 278 278 279 281 282 282 282 280 280 282 284 283 282
229 231 234 235 237 238 238 241 242 247 245 245 247 248 251 251 250 252 254 254 257 259 262 265 267 265 267 270 270 272 276 275 275 275 276 277 278 277 278 280 281 281 277 279 279 281 282 281 281
229 231 234 236 238 240 240 241 244 245 248 246 247 249 249 253 254 255 257 258 260 261 263 266 268 270 271 269 270 273 272 274 274 273 275 277 278 279 279 280 281 281 281 281 282 283 282 281 281
230 232 234 236 239 240 239 241 244 247 248 249 248 248 250 251 253 255 256 257 259 262 264 264 265 266 267 269 270 271 273 275 276 276 276 276 276 278 279 281 282 284 285 286 286 287 286 283 282
232 234 237 239 240 240 242 241 247 247 248 249 250 251 253 254 254 255 255 256 259 259 260 262 263 264 266 267 270 271 272 273 274 275 275 275 274 276 278 279 282 285 288 290 287 287 283 284 284
235 236 238 240 242 242 245 244 245 249 249 249 251 252 256 256 257 257 260 259 259 261 261 262 265 264 264 265 266 268 269 270 271 272 272 273 274 274 276 278 281 290 298 298 293 290 291 290 286
241 239 241 244 246 245 246 248 246 250 251 252 252 254 255 257 257 258 260 262 261 261 262 263 263 266 267 266 266 267 268 270 271 272 274 275 276 278 277 279 287 301 291 294 295 291 296 295 291
240 248 250 247 246 242 246 250 251 254 256 256 256 254 254 258 258 259 260 262 263 263 264 265 266 268 268 269 271 271 271 271 272 273 273 274 275 277 278 276 272 236 257 264 279 299 297 292 289
247 248 250 246 246 245 250 252 252 254 250 252 253 257 257 256 257 259 259 260 262 262 262 263 264 265 265 267 269 272 273 274 275 276 276 277 278 278 277 276 270 261 262 276 279 283 288 285 287
251 250 251 251 249 252 253 256 258 258 257 258 258 258 259 260 261 262 264 265 264 264 266 267 268 269 270 271 273 274 278 279 278 279 280 280 280 280 280 278 273 268 266 270 290 283 273 276 274
248 249 252 254 255 253 251 252 253 257 261 262 260 259 259 262 267 267 266 266 268 268 268 269 270 271 272 273 274 275 276 278 278 279 280 280 280 280 278 275 273 257 261 248 221 233 225 244 258
249 250 249 250 251 254 257 258 259 258 258 259 261 262 262 259 258 262 268 270 271 271 271 271 271 274 274 276 275 276 275 276 277 279 280 280 281 281 278 274 273 269 258 236 217 225 223 233 250
Height
10923 10929 10934 10939 10945 10949 10950 10952 10952 10956 10959 10960 10961 10961 10967 10968 10970 10972 10973 10975 10977 10980 10982 10984 10985 10987 10988 10990 10991 10993 10994 10994 10996 10996 10997 10998 10998 10998 10998 10997 10997 10996 10995 10994 10993 10992 10990 10988 10985
10914 10918 10926 10933 10939 10943 10943 10945 10947 10949 10953 10957 10955 10958 10962 10965 10966 10969 10971 10972 10974 10976 10978 10980 10981 10983 10984 10986 10987 10988 10988 10990 10992 10992 10993 10993 10994 10994 10993 10993 10992 10992 10992 10991 10990 10989 10987 10985 10983
10904 10907 10915 10924 10932 10937 10935 10932 10939 10943 10950 10948 10951 10953 10959 10957 10963 10964 10967 10968 10971 10973 10974 10975 10977 10978 10980 10981 10983 10981 10983 10985 10987 10989 10989 10989 10989 10989 10990 10990 10989 10989 10989 10988 10987 10986 10985 10983 10981
10892 10897 10906 10917 10927 10927 10924 10928 10931 10939 10944 10943 10946 10948 10953 10953 10960 10958 10963 10964 10966 10968 10970 10971 10972 10974 10975 10977 10978 10977 10977 10980 10982 10983 10984 10984 10984 10985 10985 10986 10985 10985 10985 10984 10983 10982 10981 10978 10976
10880 10887 10897 10906 10916 10915 10917 10919 10925 10932 10934 10936 10940 10942 10949 10949 10952 10953 10957 10958 10961 10962 10964 10966 10967 10969 10971 10972 10974 10974 10975 10976 10977 10978 10979 10979 10980 10980 10981 10982 10982 10981 10980 10980 10979 10977 10975 10973 10971
10867 10875 10886 10897 10903 10906 10907 10911 10917 10923 10926 10928 10934 10933 10946 10943 10946 10947 10950 10951 10954 10955 10958 10959 10961 10963 10965 10966 10968 10970 10971 10972 10973 10973 10974 10975 10976 10976 10976 10976 10976 10976 10975 10974 10973 10971 10970 10968 10967
10857 10863 10878 10884 10890 10892 10895 10902 10906 10912 10918 10918 10923 10924 10940 10941 10943 10943 10942 10943 10947 10947 10949 10951 10953 10956 10959 10960 10962 10964 10965 10966 10967 10968 10969 10969 10969 10970 10970 10970 10970 10970 10969 10967 10967 10966 10965 10964 10962
10841 10846 10861 10871 10877 10880 10881 10888 10893 10901 10904 10911 10915 10919 10929 10940 10932 10933 10935 10936 10940 10942 10941 10943 10946 10947 10950 10953 10954 10956 10958 10960 10961 10962 10963 10964 10964 10964 10963 10963 10963 10963 10963 10961 10960 10959 10958 10957 10956
10818 10830 10850 10861 10864 10867 10867 10876 10880 10887 10895 10904 10904 10912 10922 10928 10923 10922 10929 10930 10934 10935 10935 10937 10938 10940 10941 10942 10945 10948 10949 10950 10952 10954 10955 10956 10956 10956 10956 10955 10955 10956 10956 10954 10953 10952 10951 10950 10948
10801 10820 10841 10841 10847 10852 10852 10858 10868 10872 10884 10890 10892 10903 10909 10913 10914 10917 10919 10921 10925 10928 10930 10931 10931 10931 10933 10934 10935 10937 10939 10941 10942 10942 10943 10944 10945 10946 10947 10947 10946 10946 10947 10946 10945 10944 10942 10941 10940
10789 10810 10815 10824 10827 10831 10832 10844 10862 10864 10872 10877 10883 10886 10896 10902 10910 10910 10910 10909 10914 10918 10923 10920 10921 10920 10923 10925 10926 10926 10928 10930 10931 10932 10933 10934 10934 10934 10935 10934 10935 10935 10935 10936 10935 10934 10933 10933 10932
10769 10787 10793 10802 10809 10813 10828 10831 10854 10855 10864 10863 10868 10875 10884 10893 10896 10894 10894 10897 10897 10906 10907 10912 10907 10907 10911 10914 10912 10916 10918 10919 10920 10920 10920 10922 10923 10923 10923 10922 10923 10923 10924 10924 10921 10922 10921 10921 10920
10754 10766 10776 10784 10790 10800 10820 10831 10837 10843 10848 10853 10856 10863 10871 10876 10881 10879 10881 10886 10885 10891 10895 10903 10899 10898 10897 10902 10899 10903 10904 10904 10907 10908 10908 10909 10910 10911 10910 10911 10912 10910 10910 10910 10909 10909 10908 10907 10907
10734 10746 10761 10769 10780 10793 10807 10809 10813 10828 10834 10843 10842 10851 10855 10860 10863 10865 10869 10873 10872 10874 10888 10891 10887 10882 10882 10886 10890 10888 10891 10892 10894 10895 10894 10894 10895 10896 10894 10898 10900 10901 10897 10897 10896 10897 10895 10893 10894
10720 10737 10748 10760 10768 10781 10787 10795 10808 10812 10818 10827 10833 10837 10841 10848 10847 10850 10857 10858 10856 10853 10867 10871 10869 10869 10868 10870 10876 10876 10876 10879 10880 10882 10880 10877 10880 10880 10881 10881 10883 10881 10882 10885 10883 10884 10882 10881 10882
10710 10723 10735 10744 10755 10763 10768 10790 10790 10794 10799 10811 10820 10824 10827 10833 10834 10837 10842 10839 10845 10843 10847 10846 10848 10858 10851 10852 10856 10859 10860 10861 10863 10861 10866 10863 10861 10864 10864 10869 10864 10861 10869 10868 10868 10870 10869 10867 10869
10701 10715 10725 10731 10739 10745 10760 10772 10772 10773 10784 10798 10811 10809 10803 10816 10821 10820 10824 10824 10828 10830 10830 10832 10834 10838 10839 10837 10841 10843 10845 10844 10842 10845 10845 10849 10844 10840 10844 10850 10847 10847 10852 10856 10854 10857 10857 10856 10854
10694 10703 10709 10717 10724 10738 10748 10754 10758 10758 10774 10782 10792 10785 10787 10798 10800 10802 10805 10807 10807 10815 10815 10810 10815 10814 10820 10820 10819 10824 10823 10825 10824 10823 10826 10826 10828 10820 10816 10827 10828 10831 10832 10835 10836 10836 10833 10833 10834
10684 10691 10702 10710 10715 10727 10734 10740 10745 10745 10756 10766 10771 10770 10770 10777 10782 10782 10787 10784 10789 10794 10795 10791 10799 10798 10794 10805 10802 10802 10803 10803 10805 10804 10803 10804 10808 10798 10794 10801 10802 10811 10816 10817 10817 10815 10814 10809 10811
10676 10687 10688 10693 10700 10713 10722 10725 10730 10729 10738 10747 10749 10752 10753 10755 10759 10765 10764 10767 10773 10772 10776 10774 10773 10780 10782 10779 10781 10781 10781 10781 10782 10782 10781 10779 10780 10778 10772 10777 10780 10785 10796 10797 10797 10799 10795 10788 10783
10665 10673 10678 10685 10690 10699 10708 10714 10711 10714 10717 10727 10734 10734 10740 10735 10741 10746 10749 10753 10755 10758 10758 10756 10757 10760 10756 10754 10758 10760 10759 10758 10760 10759 10756 10753 10753 10754 10752 10756 10763 10765 10773 10777 10772 10773 10771 10762 10759
10657 10662 10666 10674 10680 10688 10692 10698 10701 10701 10706 10709 10713 10713 10718 10720 10721 10726 10733 10733 10740 10744 10739 10741 10737 10739 10737 10737 10737 10736 10737 10735 10735 10732 10733 10735 10732 10732 10734 10739 10741 10745 10749 10757 10753 10747 10749 10742 10740
10650 10653 10659 10667 10671 10673 10681 10686 10687 10687 10689 10691 10693 10696 10701 10703 10705 10707 10712 10719 10724 10722 10716 10711 10721 10724 10719 10714 10716 10715 10715 10715 10712 10710 10708 10711 10716 10718 10719 10722 10720 10723 10725 10729 10725 10725 10715 10714 10711
10639 10644 10649 10653 10653 10665 10666 10669 10675 10669 10671 10674 10677 10682 10684 10683 10685 10691 10697 10695 10697 10702 10702 10697 10697 10702 10701 10697 10697 10696 10696 10693 10692 10691 10688 10687 10690 10707 10709 10703 10708 10722 10717 10703 10699 10697 10694 10688 10686
10630 10633 10637 10640 10644 10653 10648 10654 10659 10654 10654 10658 10665 10667 10667 10666 10667 10670 10675 10678 10675 10678 10681 10683 10681 10676 10675 10678 10678 10678 10677 10675 10672 10669 10668 10668 10667 10680 10694 10693 10708 10694 10693 10693 10680 10676 10676 10669 10666
10622 10624 10627 10629 10631 10636 10637 10643 10641 10642 10640 10646 10646 10648 10650 10650 10655 10657 10657 10654 10656 10659 10660 10660 10661 10661 10658 10652 10655 10656 10654 10653 10651 10648 10646 10648 10650 10663 10667 10677 10694 10700 10679 10676 10680 10676 10655 10647 10647
10613 10618 10615 10618 10621 10627 10627 10628 10627 10622 10625 10630 10631 10631 10637 10639 10636 10639 10636 10638 10642 10641 10640 10642 10641 10641 10644 10643 10638 10634 10632 10634 10631 10630 10627 10625 10630 10643 10650 10650 10666 10668 10674 10685 10687 10695 10671 10627 10621
10601 10601 10602 10606 10611 10615 10618 10618 10614 10607 10622 10618 10618 10616 10623 10624 10622 10621 10623 10625 10624 10624 10625 10626 10625 10624 10624 10624 10620 10619 10618 10611 10608 10609 10607 10606 10609 10619 10626 10625 10637 10653 10658 10660 10678 10682 10700 10630 10596
10586 10588 10588 10589 10596 10599 10603 10604 10602 10601 10603 10602 10604 10603 10605 10606 10607 10610 10611 10606 10607 10607 10608 10609 10608 10605 10603 10604 10602 10600 10603 10590 10588 10586 10586 10584 10584 10591 10602 10599 10607 10626 10632 10632 10644 10654 10678 10617 10582
10569 10571 10572 10574 10582 10583 10586 10595 10588 10591 10583 10587 10586 10586 10589 10596 10597 10597 10593 10587 10585 10587 10589 10588 10589 10585 10583 10582 10581 10577 10578 10575 10564 10564 10564 10562 10560 10562 10572 10570 10576 10596 10613 10615 10620 10624 10634 10573 10570